Location: Dana
(41.8364°N, 106.7042°W)
Time: 20:48:40
(UTC+00:00)

Tiros 1 despin weight - Pass Details

Date: 11 May 2026
Orbit: 555 x 591 km, 48.2° (Epoch: 1 June)

Event Time Altitude Azimuth Distance (km) Brightness Sun altitude
Rises 20:16:15 0° 290° (WNW) 2,731 ? 61.6°
Reaches altitude 10° 20:18:48 10° 276° (W) 1,835 ? 61.3°
Maximum altitude 20:22:10 24° 222° (SW) 1,178 ? 60.9°
Drops below altitude 10° 20:25:33 10° 168° (SSE) 1,837 ? 60.4°
Sets 20:28:07 0° 154° (SSE) 2,734 ? 60.1°
